Location: ??
(35.4627°N, 139.3695°E)
Time: 04:30:48
(UTC+00:00)

Cosmos 2263 Rocket - Pass Details

Date: 25 November 2020
Orbit: 823 x 849 km, 71.0° (Epoch: 20 January)

Event Time Altitude Azimuth Distance (km) Brightness Sun altitude
Exits shadow 20:59:17 - 270° (W) 2,877 4.4 -6.3°
Reaches altitude 10° 21:01:47 10° 292° (WNW) 2,463 3.9 -5.8°
Maximum altitude 21:03:28 11° 309° (NW) 2,377 3.9 -5.5°
Drops below altitude 10° 21:05:09 10° 327° (NNW) 2,470 4.1 -5.2°
Sets 21:09:45 0° 1° (N) 3,415 5.1 -4.3°
